TimeEST,TemperatureF,Dew PointF,Humidity,Sea Level PressureIn,VisibilityMPH,Wind Direction,Wind SpeedMPH,Gust SpeedMPH,PrecipitationIn,Events,Conditions,WindDirDegrees,DateUTC
12:56 AM,35.1,19.9,54,29.94,10.0,Variable,3.5,-,N/A,,Mostly Cloudy,0,2012-11-26 05:56:00
1:56 AM,36.0,19.9,52,29.95,10.0,WSW,3.5,-,N/A,,Mostly Cloudy,240,2012-11-26 06:56:00
2:56 AM,36.0,19.9,52,29.96,10.0,West,3.5,-,N/A,,Mostly Cloudy,280,2012-11-26 07:56:00
3:56 AM,37.0,19.9,50,29.96,10.0,West,3.5,-,N/A,,Mostly Cloudy,260,2012-11-26 08:56:00
4:56 AM,36.0,19.9,52,29.98,10.0,West,5.8,-,N/A,,Mostly Cloudy,260,2012-11-26 09:56:00
5:56 AM,35.1,19.9,54,30.00,10.0,Calm,Calm,-,N/A,,Mostly Cloudy,0,2012-11-26 10:56:00
6:56 AM,35.1,21.0,57,30.02,10.0,Calm,Calm,-,N/A,,Mostly Cloudy,0,2012-11-26 11:56:00
7:56 AM,36.0,21.0,55,30.05,8.0,Variable,5.8,-,N/A,,Scattered Clouds,0,2012-11-26 12:56:00
8:56 AM,39.9,21.9,49,30.06,10.0,West,9.2,-,N/A,,Clear,270,2012-11-26 13:56:00
9:56 AM,43.0,23.0,45,30.09,10.0,WNW,13.8,17.3,N/A,,Clear,300,2012-11-26 14:56:00
10:56 AM,45.0,19.9,37,30.09,10.0,WNW,11.5,23.0,N/A,,Clear,300,2012-11-26 15:56:00
11:56 AM,46.0,19.0,34,30.09,10.0,NW,18.4,25.3,N/A,,Clear,310,2012-11-26 16:56:00
12:56 PM,46.0,19.9,35,30.10,10.0,NNW,13.8,-,N/A,,Clear,330,2012-11-26 17:56:00
1:56 PM,46.0,19.0,34,30.10,10.0,NW,13.8,-,N/A,,Clear,320,2012-11-26 18:56:00
2:56 PM,46.0,18.0,33,30.12,10.0,West,8.1,-,N/A,,Clear,280,2012-11-26 19:56:00
3:56 PM,44.1,18.0,35,30.14,10.0,WNW,9.2,-,N/A,,Clear,300,2012-11-26 20:56:00
4:56 PM,41.0,19.0,41,30.16,10.0,WNW,4.6,-,N/A,,Clear,290,2012-11-26 21:56:00
5:56 PM,37.9,21.0,51,30.18,10.0,NW,5.8,-,N/A,,Clear,320,2012-11-26 22:56:00
6:56 PM,37.0,19.0,48,30.20,10.0,NNW,4.6,-,N/A,,Clear,340,2012-11-26 23:56:00
7:56 PM,36.0,19.9,52,30.22,10.0,NW,4.6,-,N/A,,Clear,320,2012-11-27 00:56:00
8:56 PM,33.1,19.0,56,30.24,10.0,NNW,4.6,-,N/A,,Clear,330,2012-11-27 01:56:00
9:56 PM,34.0,21.9,61,30.24,10.0,NNW,4.6,-,N/A,,Clear,330,2012-11-27 02:56:00
10:56 PM,33.1,19.9,59,30.25,10.0,NW,3.5,-,N/A,,Clear,320,2012-11-27 03:56:00
11:56 PM,30.9,19.9,64,30.25,10.0,NW,3.5,-,N/A,,Clear,310,2012-11-27 04:56:00